Weather History for KLHX - August, 2012

Change the Weather History Date:

Friday, August 17, 2012

  Actual Average Record
Temperature  
Mean Temperature 76 °F 76 °F  
Max Temperature 92 °F 91 °F 104 °F (1973)
Min Temperature 60 °F 62 °F 54 °F (1960)
Degree Days  
Heating Degree Days 0 0  
Month to date heating degree days 0 0  
Since 1 June heating degree days 0 17  
Since 1 July heating degree days 0 1  
Cooling Degree Days 11 11  
Month to date cooling degree days 261 207  
Year to date cooling degree days 1432 938  
Since 1 June cooling degree days 1310 865  
Growing Degree Days 26 (Base 50)    
Moisture  
Dew Point 46 °F    
Average Humidity 37    
Maximum Humidity 52    
Minimum Humidity 21    
Precipitation  
Precipitation 0.00 in 0.05 in 0.90 in (1953)
Month to date precipitation 0.12 0.97  
Year to date precipitation 4.07 8.45  
Snow  
Snow 0.00 in - - ()
Month to date snowfall 0.0  
Since 1 June snowfall 0.0  
Snow Depth 0.00 in    
Sea Level Pressure  
Sea Level Pressure 29.91 in    
Wind  
Wind Speed 10 mph (SE)    
Max Wind Speed 24 mph    
Max Gust Speed 29 mph    
Visibility 10 miles    
Events      
T = Trace of Precipitation, MM = Missing Value Source: NWS Daily Summary

Daily Weather History Graph

Daily Weather History Graph

Search for Another Location

Airport or City:

Trip Planner

Search our weather history database for the weather conditions in past years. The results will help you decide how hot, cold, wet, or windy it might be!

Date:

Astronomy

Aug. 17, 2012 Rise Set
Actual Time 6:11 AM MDT 7:43 PM MDT
Civil Twilight 5:43 AM MDT 8:11 PM MDT
Nautical Twilight 5:09 AM MDT 8:45 PM MDT
Astronomical Twilight 4:34 AM MDT 9:20 PM MDT
Moon 6:15 AM MDT (8/17) 7:30 PM MDT (8/17)
Length of Visible Light 14h 28m
Length of Day
13h 32m
New Moon, 0% of the Moon is Illuminated
Aug 17
New Moon
Aug 24
First Quarter
Aug 31
Full
Sep 8
Last Quarter
Sep 15
New

Hourly Weather History & Observations

Time (MDT) Temp. Dew Point Humidity Pressure Visibility Wind Dir Wind Speed Gust Speed Precip Events Conditions
12:53 AM 64.0 °F 45.0 °F 50% 30.03 in 10.0 mi ESE 16.1 mph - N/A   Clear
1:53 AM 63.0 °F 44.1 °F 50% 30.02 in 10.0 mi East 15.0 mph - N/A   Clear
2:53 AM 62.1 °F 44.1 °F 52% 30.01 in 10.0 mi ESE 19.6 mph 28.8 mph N/A   Clear
3:53 AM 61.0 °F 43.0 °F 52% 30.01 in 10.0 mi SE 18.4 mph - N/A   Clear
4:53 AM 61.0 °F 42.1 °F 50% 30.01 in 10.0 mi SE 16.1 mph - N/A   Clear
5:53 AM 61.0 °F 42.1 °F 50% 30.02 in 10.0 mi SE 11.5 mph - N/A   Clear
6:53 AM 61.0 °F 43.0 °F 52% 30.02 in 10.0 mi SSE 6.9 mph - N/A   Clear
7:53 AM 63.0 °F 45.0 °F 52% 30.02 in 10.0 mi South 6.9 mph - N/A   Clear
9:53 AM 69.1 °F 46.0 °F 44% 29.99 in 10.0 mi SW 8.1 mph - N/A   Clear
10:53 AM 73.0 °F 46.9 °F 39% 29.97 in 10.0 mi South 5.8 mph - N/A   Clear
11:53 AM 77.0 °F 48.0 °F 36% 29.94 in 10.0 mi Calm Calm - N/A   Clear
12:53 PM 81.0 °F 48.0 °F 31% 29.90 in 10.0 mi SE 4.6 mph - N/A   Clear
1:53 PM 84.0 °F 48.0 °F 28% 29.87 in 10.0 mi Calm Calm - N/A   Clear
2:53 PM 87.1 °F 46.9 °F 25% 29.84 in 10.0 mi ESE 9.2 mph - N/A   Clear
3:53 PM 88.0 °F 46.9 °F 24% 29.82 in 10.0 mi Calm Calm - N/A   Clear
4:53 PM 91.0 °F 46.9 °F 22% 29.80 in 10.0 mi East 10.4 mph - N/A   Clear
5:53 PM 90.0 °F 50.0 °F 25% 29.79 in 10.0 mi ENE 11.5 mph - N/A   Clear
6:53 PM 88.0 °F 51.1 °F 28% 29.78 in 10.0 mi East 15.0 mph 23.0 mph N/A   Clear
7:53 PM 84.9 °F 52.0 °F 32% 29.79 in 10.0 mi East 16.1 mph - N/A   Partly Cloudy
8:53 PM 80.1 °F 46.0 °F 30% 29.82 in 10.0 mi WSW 12.7 mph - N/A   Clear
9:53 PM 75.9 °F 46.9 °F 36% 29.83 in 10.0 mi WSW 18.4 mph - N/A   Clear
10:53 PM 73.9 °F 46.9 °F 38% 29.86 in 10.0 mi SSE 10.4 mph - N/A   Clear
11:53 PM 73.0 °F 46.0 °F 38% 29.84 in 10.0 mi South 8.1 mph - N/A   Clear